Time,TemperatureF,DewpointF,PressureIn,WindDirection,WindDirectionDegrees,WindSpeedMPH,WindSpeedGustMPH,Humidity,HourlyPrecipIn,Conditions,Clouds,dailyrainin,SoftwareType,DateUTC
2013-02-27 09:05:00,41.0,8.7,30.30,ENE,70,3.0,3.0,26,0.00,,,0.00,Wunderground v.1.15,2013-02-27 16:05:00,
2013-02-27 09:10:00,41.3,9.8,30.30,NE,34,2.0,4.0,27,0.00,,,0.00,Wunderground v.1.15,2013-02-27 16:10:00,
2013-02-27 09:25:00,42.0,9.5,30.30,North,360,1.0,2.0,26,0.00,,,0.00,Wunderground v.1.15,2013-02-27 16:25:00,
2013-02-27 09:30:00,42.2,8.8,30.30,WNW,294,2.0,2.0,25,0.00,,,0.00,Wunderground v.1.15,2013-02-27 16:30:00,
2013-02-27 09:40:00,43.4,9.9,30.30,NNW,339,1.0,1.0,25,0.00,,,0.00,Wunderground v.1.15,2013-02-27 16:40:00,
2013-02-27 09:45:00,43.5,8.1,30.30,SSW,205,2.0,2.0,23,0.00,,,0.00,Wunderground v.1.15,2013-02-27 16:45:00,
2013-02-27 09:55:00,44.0,9.5,30.30,NE,41,2.0,4.0,24,0.00,,,0.00,Wunderground v.1.15,2013-02-27 16:55:00,
2013-02-27 10:00:00,44.4,8.9,30.30,West,264,1.0,2.0,23,0.00,,,0.00,Wunderground v.1.15,2013-02-27 17:00:00,
2013-02-27 10:10:00,44.4,8.9,30.30,NW,311,2.0,2.0,23,0.00,,,0.00,Wunderground v.1.15,2013-02-27 17:10:00,
2013-02-27 10:15:00,45.0,10.3,30.30,SSE,152,2.0,2.0,24,0.00,,,0.00,Wunderground v.1.15,2013-02-27 17:15:00,
2013-02-27 10:25:00,45.6,9.9,30.29,SE,130,1.0,2.0,23,0.00,,,0.00,Wunderground v.1.15,2013-02-27 17:25:00,
2013-02-27 10:30:00,45.4,9.7,30.29,NNE,16,1.0,3.0,23,0.00,,,0.00,Wunderground v.1.15,2013-02-27 17:30:00,
2013-02-27 10:40:00,46.0,10.2,30.29,NE,37,3.0,3.0,23,0.00,,,0.00,Wunderground v.1.15,2013-02-27 17:40:00,
2013-02-27 10:45:00,46.2,10.4,30.29,NW,319,1.0,3.0,23,0.00,,,0.00,Wunderground v.1.15,2013-02-27 17:45:00,
2013-02-27 10:55:00,46.6,9.7,30.29,SSE,150,2.0,2.0,22,0.00,,,0.00,Wunderground v.1.15,2013-02-27 17:55:00,
2013-02-27 11:00:00,47.3,10.3,30.28,North,8,2.0,5.0,22,0.00,,,0.00,Wunderground v.1.15,2013-02-27 18:00:00,
2013-02-27 11:10:00,46.8,8.8,30.28,SW,233,3.0,3.0,21,0.00,,,0.00,Wunderground v.1.15,2013-02-27 18:10:00,
2013-02-27 11:15:00,47.0,9.0,30.28,NW,317,2.0,3.0,21,0.00,,,0.00,Wunderground v.1.15,2013-02-27 18:15:00,
2013-02-27 11:25:00,47.9,9.8,30.28,NW,316,2.0,3.0,21,0.00,,,0.00,Wunderground v.1.15,2013-02-27 18:25:00,
2013-02-27 11:30:00,47.8,8.6,30.28,SSW,212,3.0,3.0,20,0.00,,,0.00,Wunderground v.1.15,2013-02-27 18:30:00,
2013-02-27 11:40:00,48.0,9.9,30.28,NW,316,2.0,4.0,21,0.00,,,0.00,Wunderground v.1.15,2013-02-27 18:40:00,
2013-02-27 11:45:00,48.3,9.0,30.27,NNE,32,3.0,6.0,20,0.00,,,0.00,Wunderground v.1.15,2013-02-27 18:45:00,
2013-02-27 11:55:00,49.2,8.6,30.27,NNW,328,2.0,3.0,19,0.00,,,0.00,Wunderground v.1.15,2013-02-27 18:55:00,
2013-02-27 12:00:00,49.3,8.7,30.27,SSE,151,2.0,2.0,19,0.00,,,0.00,Wunderground v.1.15,2013-02-27 19:00:00,
2013-02-27 12:10:00,49.9,9.2,30.26,NNE,18,1.0,4.0,19,0.00,,,0.00,Wunderground v.1.15,2013-02-27 19:10:00,
2013-02-27 12:15:00,50.3,9.5,30.26,NW,323,3.0,4.0,19,0.00,,,0.00,Wunderground v.1.15,2013-02-27 19:15:00,
2013-02-27 12:25:00,50.3,9.5,30.25,South,171,2.0,4.0,19,0.00,,,0.00,Wunderground v.1.15,2013-02-27 19:25:00,
2013-02-27 12:30:00,50.9,8.8,30.25,SSW,206,2.0,3.0,18,0.00,,,0.00,Wunderground v.1.15,2013-02-27 19:30:00,
2013-02-27 12:40:00,52.2,11.1,30.25,East,101,2.0,2.0,19,0.00,,,0.00,Wunderground v.1.15,2013-02-27 19:40:00,
2013-02-27 12:45:00,52.8,9.1,30.25,West,259,2.0,2.0,17,0.00,,,0.00,Wunderground v.1.15,2013-02-27 19:45:00,
2013-02-27 12:55:00,52.9,9.2,30.24,NE,50,5.0,9.0,17,0.00,,,0.00,Wunderground v.1.15,2013-02-27 19:55:00,
2013-02-27 13:00:00,52.8,9.1,30.24,NW,319,5.0,5.0,17,0.00,,,0.00,Wunderground v.1.15,2013-02-27 20:00:00,
2013-02-27 13:10:00,53.6,8.4,30.24,NW,308,4.0,6.0,16,0.00,,,0.00,Wunderground v.1.15,2013-02-27 20:10:00,
2013-02-27 13:15:00,52.3,7.4,30.23,NW,315,3.0,6.0,16,0.00,,,0.00,Wunderground v.1.15,2013-02-27 20:15:00,
2013-02-27 13:25:00,52.9,9.2,30.23,SSE,158,1.0,2.0,17,0.00,,,0.00,Wunderground v.1.15,2013-02-27 20:25:00,
2013-02-27 13:30:00,54.3,9.0,30.23,NE,53,1.0,1.0,16,0.00,,,0.00,Wunderground v.1.15,2013-02-27 20:30:00,
2013-02-27 13:40:00,54.6,7.8,30.23,ENE,65,3.0,4.0,15,0.00,,,0.00,Wunderground v.1.15,2013-02-27 20:40:00,
2013-02-27 13:45:00,53.8,7.1,30.22,NW,310,4.0,4.0,15,0.00,,,0.00,Wunderground v.1.15,2013-02-27 20:45:00,
2013-02-27 13:55:00,53.7,8.5,30.22,ENE,65,4.0,4.0,16,0.00,,,0.00,Wunderground v.1.15,2013-02-27 20:55:00,
2013-02-27 14:00:00,53.9,7.2,30.22,WNW,300,2.0,2.0,15,0.00,,,0.00,Wunderground v.1.15,2013-02-27 21:00:00,
2013-02-27 14:10:00,53.8,7.1,30.22,WNW,282,2.0,2.0,15,0.00,,,0.00,Wunderground v.1.15,2013-02-27 21:10:00,
2013-02-27 14:15:00,54.2,5.9,30.22,North,349,3.0,5.0,14,0.00,,,0.00,Wunderground v.1.15,2013-02-27 21:15:00,
2013-02-27 14:25:00,54.3,6.0,30.21,NE,56,3.0,8.0,14,0.00,,,0.00,Wunderground v.1.15,2013-02-27 21:25:00,
2013-02-27 14:30:00,54.8,6.4,30.21,NE,41,3.0,3.0,14,0.00,,,0.00,Wunderground v.1.15,2013-02-27 21:30:00,
2013-02-27 14:40:00,54.5,7.7,30.21,NNE,27,3.0,4.0,15,0.00,,,0.00,Wunderground v.1.15,2013-02-27 21:40:00,
2013-02-27 14:45:00,54.6,7.8,30.21,NE,50,3.0,4.0,15,0.00,,,0.00,Wunderground v.1.15,2013-02-27 21:45:00,
2013-02-27 14:55:00,54.2,7.5,30.20,NE,39,2.0,5.0,15,0.00,,,0.00,Wunderground v.1.15,2013-02-27 21:55:00,
2013-02-27 15:00:00,55.6,7.1,30.20,NNE,27,3.0,5.0,14,0.00,,,0.00,Wunderground v.1.15,2013-02-27 22:00:00,
2013-02-27 15:10:00,55.0,8.1,30.20,East,84,3.0,3.0,15,0.00,,,0.00,Wunderground v.1.15,2013-02-27 22:10:00,
2013-02-27 15:15:00,55.2,6.7,30.21,North,354,2.0,3.0,14,0.00,,,0.00,Wunderground v.1.15,2013-02-27 22:15:00,
2013-02-27 15:25:00,55.7,7.1,30.20,SSE,157,1.0,2.0,14,0.00,,,0.00,Wunderground v.1.15,2013-02-27 22:25:00,
2013-02-27 15:35:00,56.3,7.6,30.20,NE,54,2.0,4.0,14,0.00,,,0.00,Wunderground v.1.15,2013-02-27 22:35:00,
2013-02-27 15:40:00,56.3,7.6,30.20,NNE,18,3.0,4.0,14,0.00,,,0.00,Wunderground v.1.15,2013-02-27 22:40:00,
2013-02-27 15:45:00,57.0,9.7,30.19,NNW,333,3.0,3.0,15,0.00,,,0.00,Wunderground v.1.15,2013-02-27 22:45:00,
2013-02-27 15:55:00,56.5,6.2,30.19,ENE,70,3.0,3.0,13,0.00,,,0.00,Wunderground v.1.15,2013-02-27 22:55:00,
2013-02-27 16:00:00,56.3,7.6,30.19,ENE,61,3.0,4.0,14,0.00,,,0.00,Wunderground v.1.15,2013-02-27 23:00:00,
2013-02-27 16:10:00,56.5,7.8,30.19,South,179,2.0,2.0,14,0.00,,,0.00,Wunderground v.1.15,2013-02-27 23:10:00,
2013-02-27 16:15:00,56.6,7.9,30.19,ENE,75,2.0,2.0,14,0.00,,,0.00,Wunderground v.1.15,2013-02-27 23:15:00,
2013-02-27 16:25:00,57.3,6.8,30.19,ENE,67,2.0,2.0,13,0.00,,,0.00,Wunderground v.1.15,2013-02-27 23:25:00,
2013-02-27 16:30:00,57.4,6.9,30.19,NE,56,1.0,1.0,13,0.00,,,0.00,Wunderground v.1.15,2013-02-27 23:30:00,
2013-02-27 16:40:00,56.3,6.0,30.19,North,9,2.0,2.0,13,0.00,,,0.00,Wunderground v.1.15,2013-02-27 23:40:00,
2013-02-27 16:45:00,56.0,5.8,30.19,ENE,70,1.0,2.0,13,0.00,,,0.00,Wunderground v.1.15,2013-02-27 23:45:00,
2013-02-27 16:55:00,56.3,7.6,30.19,East,79,1.0,2.0,14,0.00,,,0.00,Wunderground v.1.15,2013-02-27 23:55:00,
2013-02-27 17:00:00,56.4,6.1,30.19,ESE,109,1.0,2.0,13,0.00,,,0.00,Wunderground v.1.15,2013-02-28 00:00:00,
2013-02-27 17:10:00,55.9,7.3,30.19,East,85,1.0,1.0,14,0.00,,,0.00,Wunderground v.1.15,2013-02-28 00:10:00,
2013-02-27 17:15:00,56.1,5.8,30.20,NNE,16,1.0,2.0,13,0.00,,,0.00,Wunderground v.1.15,2013-02-28 00:15:00,
2013-02-27 17:25:00,56.1,5.8,30.20,SSE,165,1.0,1.0,13,0.00,,,0.00,Wunderground v.1.15,2013-02-28 00:25:00,
2013-02-27 17:30:00,55.8,7.2,30.20,NE,51,1.0,1.0,14,0.00,,,0.00,Wunderground v.1.15,2013-02-28 00:30:00,
2013-02-27 17:40:00,54.6,6.3,30.20,NE,41,1.0,1.0,14,0.00,,,0.00,Wunderground v.1.15,2013-02-28 00:40:00,
2013-02-27 17:45:00,53.1,6.6,30.20,NNE,18,1.0,1.0,15,0.00,,,0.00,Wunderground v.1.15,2013-02-28 00:45:00,
2013-02-27 17:55:00,49.2,9.8,30.20,NNW,327,2.0,3.0,20,0.00,,,0.00,Wunderground v.1.15,2013-02-28 00:55:00,
2013-02-27 18:00:00,47.6,9.5,30.20,NW,310,3.0,3.0,21,0.00,,,0.00,Wunderground v.1.15,2013-02-28 01:00:00,
2013-02-27 18:10:00,45.4,8.7,30.20,NW,316,1.0,2.0,22,0.00,,,0.00,Wunderground v.1.15,2013-02-28 01:10:00,
2013-02-27 18:15:00,44.3,8.8,30.21,NW,320,2.0,3.0,23,0.00,,,0.00,Wunderground v.1.15,2013-02-28 01:15:00,
2013-02-27 18:25:00,43.7,8.3,30.21,NW,308,3.0,3.0,23,0.00,,,0.00,Wunderground v.1.15,2013-02-28 01:25:00,
2013-02-27 18:30:00,43.5,8.1,30.21,NW,312,3.0,3.0,23,0.00,,,0.00,Wunderground v.1.15,2013-02-28 01:30:00,
2013-02-27 18:40:00,41.8,7.6,30.22,NW,309,2.0,2.0,24,0.00,,,0.00,Wunderground v.1.15,2013-02-28 01:40:00,
2013-02-27 18:45:00,41.3,8.1,30.22,NW,307,1.0,2.0,25,0.00,,,0.00,Wunderground v.1.15,2013-02-28 01:45:00,
2013-02-27 18:55:00,40.7,7.5,30.22,WNW,290,1.0,1.0,25,0.00,,,0.00,Wunderground v.1.15,2013-02-28 01:55:00,
2013-02-27 19:00:00,40.6,7.5,30.23,WNW,295,1.0,1.0,25,0.00,,,0.00,Wunderground v.1.15,2013-02-28 02:00:00,
2013-02-27 19:10:00,40.9,7.7,30.23,NW,311,0.0,1.0,25,0.00,,,0.00,Wunderground v.1.15,2013-02-28 02:10:00,
2013-02-27 19:15:00,41.2,7.1,30.24,WNW,295,0.0,1.0,24,0.00,,,0.00,Wunderground v.1.15,2013-02-28 02:15:00,
2013-02-27 19:25:00,41.1,7.0,30.24,SSW,198,1.0,3.0,24,0.00,,,0.00,Wunderground v.1.15,2013-02-28 02:25:00,
2013-02-27 19:30:00,40.7,6.6,30.25,South,176,2.0,2.0,24,0.00,,,0.00,Wunderground v.1.15,2013-02-28 02:30:00,
2013-02-27 19:40:00,41.2,6.1,30.25,South,181,2.0,2.0,23,0.00,,,0.00,Wunderground v.1.15,2013-02-28 02:40:00,
2013-02-27 19:45:00,41.6,5.5,30.26,South,174,2.0,2.0,22,0.00,,,0.00,Wunderground v.1.15,2013-02-28 02:45:00,
2013-02-27 19:55:00,42.0,5.8,30.27,South,191,2.0,3.0,22,0.00,,,0.00,Wunderground v.1.15,2013-02-28 02:55:00,
2013-02-27 20:00:00,41.7,5.6,30.27,SSW,194,2.0,3.0,22,0.00,,,0.00,Wunderground v.1.15,2013-02-28 03:00:00,
2013-02-27 20:10:00,41.1,5.1,30.27,SSW,197,3.0,3.0,22,0.00,,,0.00,Wunderground v.1.15,2013-02-28 03:10:00,
2013-02-27 20:15:00,41.1,6.0,30.27,SW,217,2.0,3.0,23,0.00,,,0.00,Wunderground v.1.15,2013-02-28 03:15:00,
2013-02-27 20:25:00,39.8,4.9,30.28,NW,304,1.0,1.0,23,0.00,,,0.00,Wunderground v.1.15,2013-02-28 03:25:00,
2013-02-27 20:30:00,38.7,5.8,30.28,WNW,283,1.0,1.0,25,0.00,,,0.00,Wunderground v.1.15,2013-02-28 03:30:00,
2013-02-27 20:40:00,36.7,5.0,30.28,WNW,291,1.0,1.0,26,0.00,,,0.00,Wunderground v.1.15,2013-02-28 03:40:00,
2013-02-27 20:45:00,36.0,6.0,30.28,WNW,291,1.0,1.0,28,0.00,,,0.00,Wunderground v.1.15,2013-02-28 03:45:00,
2013-02-27 20:55:00,36.3,6.3,30.28,WNW,295,1.0,1.0,28,0.00,,,0.00,Wunderground v.1.15,2013-02-28 03:55:00,
2013-02-27 21:00:00,35.7,6.5,30.29,NW,314,1.0,1.0,29,0.00,,,0.00,Wunderground v.1.15,2013-02-28 04:00:00,
2013-02-27 21:10:00,35.0,6.6,30.29,West,276,1.0,1.0,30,0.00,,,0.00,Wunderground v.1.15,2013-02-28 04:10:00,
2013-02-27 21:15:00,35.3,6.2,30.29,WNW,283,1.0,1.0,29,0.00,,,0.00,Wunderground v.1.15,2013-02-28 04:15:00,
2013-02-27 21:25:00,36.6,6.5,30.29,West,278,2.0,3.0,28,0.00,,,0.00,Wunderground v.1.15,2013-02-28 04:25:00,
2013-02-27 21:30:00,36.6,6.5,30.30,WNW,282,2.0,2.0,28,0.00,,,0.00,Wunderground v.1.15,2013-02-28 04:30:00,
2013-02-27 21:40:00,35.9,5.9,30.30,WNW,287,1.0,1.0,28,0.00,,,0.00,Wunderground v.1.15,2013-02-28 04:40:00,
2013-02-27 21:45:00,35.7,5.7,30.30,NW,319,1.0,1.0,28,0.00,,,0.00,Wunderground v.1.15,2013-02-28 04:45:00,
2013-02-27 21:55:00,34.7,5.6,30.30,NW,313,1.0,1.0,29,0.00,,,0.00,Wunderground v.1.15,2013-02-28 04:55:00,
2013-02-27 22:00:00,33.9,5.7,30.30,WNW,294,1.0,1.0,30,0.00,,,0.00,Wunderground v.1.15,2013-02-28 05:00:00,
2013-02-27 22:10:00,33.5,6.0,30.30,WNW,299,1.0,2.0,31,0.00,,,0.00,Wunderground v.1.15,2013-02-28 05:10:00,